Location: Bridgewater Hill Observatory
(43.5992°N, 72.6989°W)
Time: 22:36:17
(UTC-05:00)

Daily predictions for brighter satellites

Satellite Brightness Start Highest point End
(mag) Time Altitude Azimuth Time Altitude Azimuth Time Altitude Azimuth
Meteor 2-2 Rocket 4.2 17:08:17 10° N 17:13:57 74° E 17:19:35 10° SSE
Cosmos 2322 Rocket 4.5 17:11:08 10° W 17:14:36 16° NW 17:18:03 10° N
Cosmos 2278 Rocket 2.3 17:13:07 10° NNW 17:18:44 58° ENE 17:24:19 10° SE
Cosmos 1626 4.2 17:19:30 10° E 17:20:08 10° E 17:20:45 10° ENE
Cosmos 1151 Rocket 3.2 17:16:20 10° N 17:20:30 47° ENE 17:24:37 10° SSE
Cosmos 371 Rocket 3.3 17:18:28 10° S 17:23:15 71° ESE 17:28:04 10° NNE
Cosmos 1515 Rocket 3.6 17:19:17 10° N 17:23:46 77° E 17:28:12 10° SSE
SJ-6B 4.5 17:22:07 10° E 17:24:37 16° ENE 17:27:08 10° NNE
Aureole 2 Rocket 3.7 17:22:52 10° SSE 17:26:05 28° E 17:29:32 10° NE
SMAP 3.3 17:23:10 10° S 17:27:49 78° WSW 17:32:30 10° NNW
Cosmos 1763 Rocket 4.1 17:23:06 10° SW 17:28:14 58° WNW 17:33:20 10° NNE
Cosmos 1455 3.9 17:28:00 10° NE 17:29:50 13° ENE 17:31:41 10° E
Cosmos 1674 3.7 17:26:24 10° SSW 17:30:07 50° W 17:33:54 10° N
SKYMED 2 4.2 17:26:39 10° NNE 17:30:42 37° E 17:34:43 10° SSE
Cosmos 1844 4.2 17:25:52 10° NNW 17:31:37 69° WSW 17:37:21 10° SSE
Cosmos 372 Rocket 4.0 17:26:52 10° NNW 17:31:54 56° ENE 17:36:54 10° SE
Cosmos 1726 2.1 17:30:25 10° N 17:34:10 63° E 17:37:55 10° SSE
Lacrosse 4 Rocket 3.2 17:32:47 10° NNE 17:34:33 12° NE 17:35:44 11° ENE
Meteor 1-27 4.5 17:30:10 10° N 17:35:50 51° ENE 17:41:31 10° SSE
Cosmos 1500 Rocket 3.5 17:34:26 10° S 17:38:45 89° W 17:43:10 10° N
Cosmos 540 Rocket 3.5 17:34:57 10° S 17:40:04 67° ESE 17:45:13 10° NNE
USA 215 3.5 17:36:10 10° ESE 17:42:29 53° NNE 17:48:49 10° NW
Cosmos 2237 Rocket 2.2 17:38:37 10° SSW 17:44:12 73° ESE 17:49:51 10° NNE
Cosmos 44 Rocket 3.7 17:39:35 10° SW 17:44:42 67° NW 17:49:43 10° NNE
Cosmos 2084 3.6 17:41:08 10° SW 17:44:58 58° NW 17:48:43 10° NNE
NOSS 0 Rocket 4.0 17:40:04 10° SSW 17:46:19 87° ESE 17:52:34 10° NNE
Cosmos 2369 Rocket 4.1 17:45:31 10° NNE 17:46:51 11° NE 17:47:38 10° NE
FREGAT/IRIS 4.1 17:45:23 10° ESE 17:47:34 18° ENE 17:49:46 10° NNE
COSMOS 2428 4.0 17:43:53 10° SW 17:49:11 38° WNW 17:54:32 10° NNE
Sich 1 4.2 17:45:55 10° SE 17:49:23 23° E 17:52:36 11° NE
Cosmos 1300 2.7 17:45:48 10° N 17:49:40 85° W 17:53:29 10° S
Cosmos 1634 Rocket 4.2 17:44:56 10° N 17:51:08 76° W 17:57:16 10° S
SL-16 R/B 2.8 17:46:08 10° S 17:51:13 36° ESE 17:56:02 11° NE
Cosmos 1340 Rocket 3.1 17:47:36 10° SSE 17:51:21 44° E 17:55:06 10° NNE
SL-14 R/B 3.2 17:48:39 10° S 17:52:34 83° E 17:56:35 10° N
Abrixas 2.5 17:51:21 10° SW 17:54:14 61° SSE 17:55:48 24° ENE
Cosmos 1461 3.7 17:51:07 10° S 17:54:52 33° ESE 17:57:06 19° ENE
Cosmos 2058 2.8 17:51:11 10° S 17:55:15 65° E 17:59:20 10° NNE
Cosmos 1484 Rocket 3.0 17:51:52 10° S 17:55:48 79° WSW 17:59:49 10° NNW
Cosmos 1633 Rocket 4.1 17:53:15 10° SE 17:56:45 24° E 17:58:57 16° NE
Cosmos 2297 3.7 17:55:41 10° NNW 18:01:21 61° ENE 18:07:00 10° SE
Cosmos 304 Rocket 3.9 17:57:30 10° S 18:02:09 51° ESE 18:06:33 11° NNE
Cosmos 783 Rocket 4.5 17:59:20 10° SSW 18:04:38 84° ESE 18:10:00 10° NNE
Lacrosse 5 3.7 18:04:41 10° NW 18:08:09 18° N 18:10:54 12° NNE
Meteor 1-28 Rocket 3.0 18:10:36 10° NNE 18:14:20 79° ESE 18:18:03 10° S
CZ-4C R/B 4.4 18:11:49 10° NNW 18:15:25 15° NNE 18:17:48 13° NE
Cosmos 1900 4.2 18:10:53 10° NNW 18:15:50 71° NE 18:20:49 10° SE
Meteor 2-10 4.2 18:11:48 10° NNW 18:16:54 73° W 18:22:06 10° S
Cosmos 1356 Rocket 3.5 18:13:08 10° SSE 18:16:57 46° E 18:19:10 22° NNE
Aureole 1 Rocket 4.4 18:13:15 10° SSE 18:18:05 35° E 18:22:28 17° NE
COSMO-SKYMED 1 2.9 18:14:29 10° N 18:18:48 67° WNW 18:23:06 10° SSW
Cosmos 1707 Rocket 3.4 18:14:51 10° N 18:19:11 64° E 18:23:28 10° SSE
CENTAUR R/B 4.0 18:13:49 10° W 18:19:28 32° NW 18:25:47 10° NNE
DMSP B5D1-3 4.4 18:15:03 10° NNE 18:20:11 85° ESE 18:25:17 10° SSW
USA 229 DEB 4.3 18:15:55 10° S 18:21:59 35° ESE 18:24:43 26° ENE
USA 229 4.3 18:16:02 10° S 18:22:05 35° ESE 18:24:46 26° ENE
Spot 2 Rocket 3.9 18:19:43 10° SE 18:24:22 38° ENE 18:29:01 10° N
Resurs 01 Rocket 2.0 18:26:17 29° ESE 18:27:47 39° ENE 18:31:55 10° N
FENGYUN 3A 3.9 18:23:22 10° SE 18:28:26 45° ENE 18:33:33 10° N
Lacrosse 5 rocket 2.6 18:26:25 10° WNW 18:29:59 38° SW 18:33:42 10° SSE
Cosmos 1666 Rocket 3.4 18:26:31 10° S 18:30:49 66° E 18:34:14 16° NNE
METEOR-M 4.1 18:28:19 10° SSE 18:33:40 89° WSW 18:39:03 10° NNW
Cosmos 1184 Rocket 3.5 18:30:55 10° S 18:33:17 39° SSE 18:33:17 39° SSE
Cosmos 1538 Rocket 3.9 18:31:55 10° SSW 18:37:11 74° ESE 18:40:44 22° NNE
Iridium 4 Rocket 3.2 18:35:42 10° SSE 18:39:48 48° E 18:39:48 48° E
ATLAS 5 CENTAUR R/B 4.0 18:38:27 10° NNW 18:41:50 17° NNE 18:41:50 17° NNE
Orbus 7S? 4.4 18:40:39 10° NW 18:44:46 62° NE 18:48:52 29° ESE
FengYun 1-2 T 4.1 18:41:02 10° SSE 18:46:33 69° ENE 18:52:03 10° N
ALOS 2.1 18:42:16 10° SSE 18:46:53 66° ENE 18:51:32 10° N
Cosmos 2333 Rocket 3.9 18:47:14 10° WSW 18:52:04 29° NW 18:56:58 10° N
Cosmos 2219 Rocket 4.2 18:49:06 10° WSW 18:53:30 23° NW 18:57:55 10° N
Cosmos 1626 2.9 18:51:19 10° SSW 18:54:59 52° W 18:56:51 26° NNW
Cosmos 1603 4.1 18:50:23 10° S 18:55:01 42° SE 18:55:01 42° SE
SJ-6B 3.8 18:54:55 10° S 18:58:52 49° W 19:02:55 10° NNW
Cosmos 2242 Rocket 3.5 18:55:47 10° N 19:00:14 89° W 19:04:41 10° S
Cosmos 1943 Rocket 4.2 18:57:03 10° N 18:57:49 12° NNE 18:57:49 12° NNE
Nadezhda 4 Rocket 4.1 18:54:42 10° SSW 19:00:57 77° W 19:07:18 10° N
Cosmos 1455 3.2 19:02:10 10° NNW 19:05:48 45° W 19:09:27 10° SSW
Lacrosse 4 Rocket 2.6 19:09:47 10° NNW 19:12:09 34° NNW 19:12:09 34° NNW
Cosmos 773 Rocket 4.1 19:13:22 10° SSW 19:18:31 73° WNW 19:19:20 60° N
Cosmos 1092 Rocket 4.1 19:14:58 10° SSW 19:21:18 74° W 19:27:41 10° N
USA 215 3.8 19:21:35 24° SSE 19:25:28 54° SW 19:31:54 10° NW
Cosmos 2237 Rocket 4.4 19:24:45 10° W 19:28:52 20° NW 19:33:01 10° N
ATLAS 3B R/B 4.4 19:26:01 10° NNW 19:29:53 18° NNE 19:29:53 18° NNE
Cosmos 2369 Rocket 3.6 19:26:45 10° NNW 19:29:27 27° N 19:29:27 27° N
SL-16 R/B 3.5 19:30:07 10° WSW 19:35:18 36° NW 19:37:58 24° N
Lacrosse 5 4.2 19:48:42 10° NW 19:50:07 16° NNW 19:50:07 16° NNW
CZ-3A R/B 4.2 19:56:01 10° WNW 20:00:16 36° SW 20:01:31 32° SSW
Resurs 01 Rocket 4.0 20:03:50 21° WSW 20:04:23 21° W 20:07:48 10° NW
CZ-4C R/B 4.2 19:59:55 10° NNW 20:02:59 24° N 20:02:59 24° N
USA 229 DEB 4.3 20:05:58 10° WSW 20:12:14 53° WNW 20:12:14 53° WNW
USA 229 4.2 20:06:04 10° WSW 20:12:17 53° WNW 20:12:17 53° WNW
